Flag for Germany Weather past 2 weeks in Pulheim, North Rhine-Westphalia, Germany

Now
63 °F

Partly cloudy.


Feels Like: 63 °F
Forecast: 55 / 62 °F
Wind: 2 mph from Southwest

Location: Noervenich

Current Time: Sep 20, 2014 at 10:12:06 PM

Latest Report: Sep 20, 2014 at 9:20 PM


Visibility: N/A

Pressure: 29.98 "Hg

Humidity: 94%

Dew point: 61 °F

Location of PulheimLocation

Historic Weather in Pulheim — Graph

°F

Pulheim temperature yesterday

Maximum temperature yesterday: 77 °F (at 2:20 PM)
Minimum temperature yesterday: 59 °F (at 3:20 AM)
Average temperature yesterday: 66 °F

Past Weeks' High & Low Weather Summary

 TemperatureHumidityPressure
High77 °F (Sep 19, 2:20 PM)100% (Sep 6, 3:20 AM)30.24 "Hg (Sep 6, 3:20 AM)
Low46 °F (Sep 12, 6:20 AM)50% (Sep 17, 3:20 PM)29.83 "Hg (Sep 18, 4:20 AM)
Average62 °F82%30.02 "Hg
* Reported Sep 5 8:20 PM — Sep 20 8:20 PM, Pulheim, Weather by CustomWeather, © 2014

Note: Actual official high and low records may vary slightly from our data, if they occured in-between our weather recording intervals... More about our weather records

Advertising

Pulheim weather history for previous 24 hours

 ConditionsComfort  
Time TempWeatherWind HumidityBarometerVisibility
8:20 PM
Sep 20
63 °FBroken clouds.No wind94%29.95 "HgN/A
7:20 PM64 °FMild.3 mph88%29.95 "HgN/A
3:20 PM75 °FMild.6 mph69%29.92 "HgN/A
2:20 PM70 °FMild.1 mph78%29.95 "Hg6 mi
1:20 PM72 °FMild.2 mph78%29.95 "HgN/A
12:20 PM70 °FMild.1 mph83%29.98 "HgN/A
11:20 AM68 °FBroken clouds.2 mph88%29.98 "HgN/A
10:20 AM66 °FPartly sunny.No wind88%29.95 "HgN/A
9:20 AM63 °FBroken clouds.No wind94%29.95 "HgN/A
8:20 AM61 °FBroken clouds.3 mph94%29.95 "HgN/A
7:20 AM59 °FPartly cloudy.3 mph100%29.95 "HgN/A
6:20 AM59 °FPartly cloudy.1 mph100%29.92 "HgN/A
5:20 AM59 °FPassing clouds.1 mph100%29.92 "HgN/A
4:20 AM59 °FPassing clouds.3 mph100%29.92 "HgN/A
3:20 AM59 °FPassing clouds.1 mph100%29.92 "HgN/A
2:20 AM61 °FFog.1 mph100%29.92 "HgN/A
1:20 AM63 °FPassing clouds.No wind94%29.92 "HgN/A
12:20 AM63 °FPassing clouds.1 mph94%29.92 "HgN/A
11:20 PM
Sep 19
63 °FPassing clouds.No wind100%29.92 "HgN/A
10:20 PM63 °FFog.No wind100%29.92 "HgN/A
Weather by CustomWeather, © 2014

See weather overviewHow to use our weather pages